[[{"header":{"parameterUnit":"m.s-1","parameterCategory":1,"la1":30.2991,"la2":30.254,"lo1":-89.0895,"lo2":-89.0444,"dy":0.0017,"dx":0.0017,"nx":28,"ny":28,"refTime":"2024-04-01T09:00:00:Z","depth":0,"parameterNumber":2,"parameterNumberName":"U-component_of_WINDS"},"data":[0,0,0,0,0,0,0,0,0,0,0,0,0,0,0,0,0,0,0,0,0,0,0,0,0,0,0,0,0,0,0,0,0,0,0,0,0,0,0,0,0,0,0,0,0,0,0,0,0,0,0,0,0,0,0,0,0,0,-1.9772,-1.9772,0,-1.9808,-1.9808,-1.9808,-1.9788,-1.9786,-1.9785,-1.9785,-1.9822,-1.9823,-1.9825,0,0,0,0,0,0,0,0,0,0,0,0,0,-1.9685,-1.9687,-1.9772,-1.9772,-1.9772,-1.9807,-1.9808,-1.9808,-1.9788,-1.9786,-1.9785,-1.9784,-1.9821,-1.9823,-1.9826,0,0,0,0,0,0,0,0,0,0,0,0,0,-1.9722,-1.9688,-1.9771,-1.9766,-1.9766,-1.9807,-1.9808,-1.9809,-1.9788,-1.9786,-1.9785,-1.9783,-1.982,-1.9823,-1.9826,-1.9874,0,0,-1.9835,-1.9836,0,0,0,0,0,0,0,0,-1.972,-1.9725,-1.9767,-1.9767,-1.9767,-1.9791,-1.9791,-1.9831,-1.9788,-1.978,-1.9784,-1.9783,-1.9813,-1.9816,-1.9826,-1.9876,-1.9878,-1.9835,-1.9837,-1.9838,-1.9839,0,0,0,0,0,0,0,-1.9718,-1.9724,-1.9786,-1.9767,-1.9767,-1.9762,-1.9766,-1.9799,-1.9804,-1.978,-1.9779,-1.9783,-1.9813,-1.9824,-1.9827,-1.9878,-1.9835,-1.9838,-1.9839,-1.984,-1.9969,-1.9971,0,0,0,0,0,0,-1.9715,-1.9722,-1.9785,-1.9787,-1.9739,-1.9765,-1.9769,-1.9785,-1.9804,-1.9805,-1.9785,-1.9782,-1.9819,-1.9824,-1.9828,-1.9886,-1.9838,-1.9841,-1.9842,-1.9968,-1.997,-1.9971,0,0,0,0,0,0,-1.9714,-1.9721,-1.9783,-1.9754,-1.9761,-1.9768,-1.9786,-1.9787,-1.9797,-1.9807,-1.9808,-1.9795,-1.9818,-1.9824,-1.9863,-1.9887,-1.9842,-1.9845,-1.9966,-1.9968,-1.997,-2.0001,0,0,0,0,0,0,-1.9711,-1.9721,-1.9739,-1.9755,-1.9763,-1.9817,-1.9788,-1.9788,-1.9803,-1.98,-1.9817,-1.9818,-1.9818,-1.9859,-1.9866,-1.989,-1.9847,-1.9963,-1.9967,-1.997,-1.9998,-2.0004,-2.001,0,0,0,0,0,-1.9708,-1.9746,-1.974,-1.9748,-1.9786,-1.9819,-1.9823,-1.9822,-1.9805,-1.9823,-1.9829,-1.9818,-1.9883,-1.9863,-1.9871,-1.9896,-1.9962,-1.9966,-1.9969,-1.9995,-2.0003,-2.001,0,0,0,0,0,0,-1.9733,-1.9748,-1.9741,-1.9786,-1.9801,-1.9815,-1.9838,-1.983,-1.9851,-1.9847,-1.9844,-1.9848,-1.9889,-1.9896,-1.9873,-1.9944,-1.992,-1.9925,-1.9937,-1.9944,-1.995,-1.9947,-1.9849,0,0,0,0,0,-1.9744,-1.9769,-1.9781,-1.9819,-1.9827,-1.9831,-1.9845,-1.9843,-1.9858,-1.9865,-1.9874,-1.989,-1.9914,-1.993,-1.9953,-1.9999,-2.0003,-2.0021,-2.0027,-2.0032,-2.0036,-2.0061,-2.0069,-1.9984,-1.9984,-1.9984,0,0,-1.9766,-1.9778,-1.9793,-1.9824,-1.9835,-1.9861,-1.9837,-1.9865,-1.9884,-1.9869,-1.9906,-1.9914,-1.9931,-1.9974,-1.9993,-1.9982,-2.006,-2.0036,-2.004,-2.0042,-2.0066,-2.0074,-2.0081,-1.9986,-1.9986,-1.9985,0,0,-1.982,-1.9831,-1.9863,-1.9876,-1.9894,-1.9896,-1.9904,-1.992,-1.9924,-1.9961,-1.995,-1.9973,-2.0015,-2.0028,-2.004,-2.0099,-2.0089,-2.0107,-2.0137,-2.0161,-2.0168,-2.0174,-2.0194,-2.0202,-2.0111,-2.0111,-2.0111,0,-1.9845,-1.9883,-1.9881,-1.9911,-1.9924,-1.9912,-1.9945,-1.9957,-1.9981,-1.9991,-1.9978,-2.003,-2.0041,-2.0086,-2.0101,-2.0111,-2.012,-2.0104,-2.0167,-2.0173,-2.0179,-2.0198,-2.0206,-2.0113,-2.0113,-2.0113,-2.0113,0,-1.9913,-1.994,-1.9964,-1.9988,-2.0005,-2.0036,-2.0038,-2.0056,-2.0052,-2.0056,-2.0094,-2.0107,-2.0132,-2.0143,-2.014,-2.0188,-2.018,-2.0168,-2.0143,-2.0189,-2.0207,-2.0214,-2.0116,-2.0115,-2.0115,-2.0114,0,0,-1.9982,-2.0005,-2.0014,-2.0024,-2.0044,-2.0064,-2.0095,-2.0119,-2.0134,-2.0152,-2.0177,-2.0213,-2.0201,-2.0215,-2.0213,-2.0235,-2.028,-2.0219,-2.0219,-2.0229,-2.0334,-2.0342,-2.0351,-2.0274,-2.0276,-2.0277,-2.0332,0,-2.0036,-2.0089,-2.0089,-2.0138,-2.0163,-2.0152,-2.0178,-2.0193,-2.0198,-2.022,-2.0226,-2.0251,-2.0234,-2.0242,-2.0263,-2.027,-2.0301,-2.0266,-2.0297,-2.0298,-2.0292,-2.0361,-2.037,-2.0421,-2.0339,-2.034,-2.0341,0,-2.0106,-2.0126,-2.0177,-2.0193,-2.0203,-2.0227,-2.0249,-2.0271,-2.0287,-2.029,-2.0305,-2.03,-2.0331,-2.0307,-2.035,-2.0327,-2.034,-2.0345,-2.0347,-2.0349,-2.0321,-2.0363,-2.0438,-2.0445,-2.0352,-2.0351,-2.0351,0,-2.015,-2.019,-2.0226,-2.0235,-2.0255,-2.0272,-2.028,-2.0296,-2.031,-2.033,-2.034,-2.0363,-2.0376,-2.0394,-2.0395,-2.0378,-2.0438,-2.0415,-2.0441,-2.0441,-2.0453,-2.0452,-2.0529,-2.0463,-2.0463,-2.0463,-2.0463,0,-2.021,-2.0242,-2.0246,-2.0268,-2.0303,-2.0302,-2.0338,-2.0345,-2.0359,-2.0382,-2.0375,-2.0397,-2.0398,-2.042,-2.0422,-2.0457,-2.0463,-2.0465,-2.0465,-2.0465,-2.0465,-2.0473,-2.0469,-2.0465,-2.0465,-2.0464,-2.0464,0,-2.0265,-2.0269,-2.0307,-2.0322,-2.0327,-2.0352,-2.0365,-2.0386,-2.0391,-2.0421,-2.0428,-2.0435,-2.0461,-2.0465,-2.0496,-2.0497,-2.0539,-2.0535,-2.0533,-2.0532,-2.0558,-2.0555,-2.0642,-2.0653,-2.0581,-2.0581,-2.0582,0,-2.0302,-2.0326,-2.0344,-2.0359,-2.0369,-2.0393,-2.0408,-2.0408,-2.0424,-2.0445,-2.0464,-2.0489,-2.051,-2.0553,-2.0561,-2.0584,-2.0581,-2.061,-2.0584,-2.0584,-2.058,-2.0578,-2.058,-2.0614,-2.0615,-2.0616,-2.0616,0,-2.0367,-2.0368,-2.039,-2.0413,-2.0431,-2.0449,-2.0465,-2.0478,-2.0481,-2.0499,-2.0526,-2.0542,-2.0573,-2.0599,-2.0622,-2.0632,-2.0624,-2.0625,-2.0632,-2.0631,-2.0629,-2.063,-2.0545,-2.0622,-2.0622,-2.0621,-2.0621,-2.0621,-2.0414,-2.0435,-2.045,-2.0475,-2.0488,-2.0504,-2.0524,-2.0531,-2.0554,-2.0579,-2.0578,-2.0608,-2.0624,-2.0655,-2.0666,-2.0689,-2.0679,-2.069,-2.0692,-2.0695,-2.0697,-2.0626,-2.0693,-2.0693,-2.0693,-2.0693,-2.0693,0,-2.0478,-2.0488,-2.051,-2.0534,-2.0553,-2.0545,-2.0564,-2.058,-2.0606,-2.0622,-2.0642,-2.0673,-2.0698,-2.0708,-2.0732,-2.0749,-2.0746,-2.0755,-2.0753,-2.0755,-2.0704,-2.0695,-2.0757,-2.0757,-2.0757,-2.0757,-2.0757,-2.0757,-2.0514,-2.0548,-2.0551,-2.0592,-2.0601,-2.063,-2.0641,-2.0656,-2.0668,-2.0703,-2.0723,-2.073,-2.0744,-2.0769,-2.0791,-2.0794,-2.0802,-2.0813,-2.0814,-2.0765,-2.0759,-2.0753,-2.0744,-2.0815,-2.0815,-2.0863,-2.0863,-2.0863]},{"header":{"parameterUnit":"m.s-1","parameterCategory":1,"la1":30.2991,"la2":30.254,"lo1":-89.0895,"lo2":-89.0444,"dy":0.0017,"dx":0.0017,"nx":28,"ny":28,"refTime":"2024-04-01T09:00:00:Z","depth":0,"parameterNumber":3,"parameterNumberName":"V-component_of_WINDS"},"data":[0,0,0,0,0,0,0,0,0,0,0,0,0,0,0,0,0,0,0,0,0,0,0,0,0,0,0,0,0,0,0,0,0,0,0,0,0,0,0,0,0,0,0,0,0,0,0,0,0,0,0,0,0,0,0,0,0,0,2.6543,2.6543,0,2.6508,2.6508,2.6508,2.6486,2.6486,2.6486,2.6486,2.6449,2.6449,2.6448,0,0,0,0,0,0,0,0,0,0,0,0,0,2.6591,2.659,2.6543,2.6543,2.6542,2.6508,2.6508,2.6507,2.6486,2.6486,2.6486,2.6486,2.645,2.6449,2.6448,0,0,0,0,0,0,0,0,0,0,0,0,0,2.6565,2.659,2.6543,2.6527,2.6526,2.6508,2.6508,2.6507,2.6486,2.6486,2.6486,2.6486,2.645,2.6449,2.6448,2.6443,0,0,2.6444,2.6443,0,0,0,0,0,0,0,0,2.6566,2.6563,2.653,2.6529,2.6527,2.6501,2.6512,2.6486,2.6486,2.6501,2.6486,2.6486,2.6467,2.6464,2.6458,2.6441,2.644,2.6444,2.6443,2.6442,2.6442,0,0,0,0,0,0,0,2.6568,2.6564,2.6529,2.653,2.6528,2.6522,2.6518,2.6507,2.6485,2.65,2.6498,2.6494,2.6466,2.6459,2.6457,2.6439,2.6444,2.6442,2.6442,2.6441,2.6418,2.6419,0,0,0,0,0,0,2.6572,2.6566,2.653,2.6528,2.6546,2.6522,2.6517,2.651,2.6485,2.6482,2.6495,2.6494,2.6462,2.6459,2.6456,2.6449,2.6442,2.6441,2.644,2.6418,2.6418,2.6419,0,0,0,0,0,0,2.6574,2.6569,2.6532,2.6547,2.6541,2.6521,2.6513,2.6509,2.6502,2.6481,2.6478,2.6492,2.6461,2.6457,2.6447,2.6448,2.644,2.6439,2.6418,2.6418,2.6418,2.6436,0,0,0,0,0,0,2.6575,2.657,2.6568,2.6547,2.6541,2.6523,2.6513,2.6508,2.65,2.6499,2.6478,2.6474,2.6461,2.6449,2.6445,2.6446,2.6438,2.6418,2.6418,2.6418,2.6436,2.6437,2.6439,0,0,0,0,0,2.6577,2.6574,2.6568,2.6564,2.6538,2.6523,2.652,2.6505,2.6501,2.6498,2.6485,2.6475,2.6448,2.6448,2.6444,2.6444,2.6418,2.6418,2.6418,2.6435,2.6437,2.6439,0,0,0,0,0,0,2.6595,2.6571,2.6564,2.6554,2.6541,2.652,2.6516,2.6507,2.6495,2.6494,2.6476,2.6471,2.6462,2.6452,2.6452,2.6439,2.6432,2.6432,2.6446,2.6448,2.6449,2.6452,2.6437,0,0,0,0,0,2.6598,2.6588,2.6568,2.6561,2.6555,2.6537,2.653,2.652,2.6505,2.65,2.6486,2.6472,2.6461,2.6454,2.6442,2.6434,2.643,2.6433,2.6434,2.6436,2.6435,2.6432,2.6433,2.642,2.642,2.642,0,0,2.6603,2.6589,2.6584,2.6564,2.6553,2.6544,2.6532,2.6523,2.6516,2.6498,2.6487,2.6477,2.646,2.6452,2.6447,2.6443,2.6438,2.6436,2.6437,2.6436,2.6432,2.6433,2.6434,2.642,2.642,2.642,0,0,2.6609,2.6597,2.6591,2.658,2.6563,2.6552,2.655,2.6531,2.6523,2.6512,2.6499,2.6491,2.6472,2.6461,2.6453,2.6457,2.6447,2.6453,2.6461,2.6458,2.6459,2.646,2.6461,2.6462,2.6453,2.6453,2.6453,0,2.6618,2.6604,2.6588,2.658,2.6572,2.6557,2.655,2.6541,2.6521,2.6516,2.6512,2.6488,2.6476,2.6465,2.6466,2.646,2.6458,2.6455,2.646,2.6461,2.6461,2.6463,2.6463,2.6454,2.6454,2.6454,2.6454,0,2.6616,2.6606,2.6603,2.6585,2.6577,2.657,2.6554,2.6547,2.6538,2.6527,2.6517,2.6502,2.6488,2.6484,2.6475,2.6472,2.647,2.6463,2.6456,2.6464,2.6465,2.6465,2.6456,2.6455,2.6455,2.6455,0,0,2.663,2.6606,2.6605,2.6597,2.6579,2.6571,2.6564,2.655,2.6545,2.6533,2.6526,2.6511,2.6505,2.6496,2.6485,2.6482,2.6487,2.6476,2.6475,2.6479,2.6484,2.649,2.6491,2.6481,2.6481,2.6481,2.6486,0,2.6634,2.6619,2.6606,2.6597,2.6588,2.6574,2.6568,2.6556,2.6546,2.6537,2.6526,2.6516,2.6508,2.6503,2.6499,2.6487,2.6488,2.6487,2.6475,2.6475,2.6479,2.6491,2.6496,2.6502,2.6486,2.6486,2.6486,0,2.6635,2.6624,2.6614,2.6598,2.6593,2.6588,2.6575,2.6567,2.6554,2.6547,2.6538,2.6527,2.6519,2.6513,2.6502,2.6501,2.6496,2.6489,2.6489,2.6487,2.6481,2.649,2.6503,2.6504,2.6487,2.6487,2.6487,0,2.6647,2.663,2.6622,2.6616,2.6596,2.6593,2.6585,2.6571,2.6564,2.6553,2.6549,2.6537,2.6531,2.6522,2.6509,2.6505,2.6499,2.6492,2.6493,2.6494,2.6492,2.6493,2.6505,2.6489,2.6489,2.6489,2.6489,0,2.6652,2.6646,2.6627,2.6623,2.6616,2.6602,2.6596,2.6587,2.6575,2.6568,2.6556,2.655,2.6532,2.6525,2.6514,2.6507,2.6504,2.6499,2.6496,2.65,2.65,2.6496,2.6495,2.6489,2.6489,2.6489,2.6489,0,2.6664,2.6651,2.6642,2.6625,2.6621,2.6617,2.6602,2.6597,2.6587,2.6579,2.6576,2.656,2.655,2.6536,2.6522,2.6515,2.651,2.6505,2.6514,2.6513,2.6516,2.6516,2.6525,2.6526,2.6509,2.651,2.651,0,2.6668,2.6664,2.6647,2.6642,2.6634,2.6626,2.6619,2.6605,2.6599,2.6584,2.6581,2.6571,2.6561,2.6547,2.6534,2.6523,2.6519,2.6523,2.6517,2.6521,2.6519,2.652,2.6519,2.6524,2.6524,2.6524,2.6525,0,2.6676,2.6671,2.6662,2.6651,2.6644,2.6635,2.6625,2.6621,2.6605,2.6599,2.6589,2.6582,2.6569,2.6558,2.6546,2.6538,2.6529,2.6527,2.6527,2.653,2.6536,2.6534,2.6518,2.6526,2.6526,2.6526,2.6526,2.6526,2.6684,2.6681,2.6668,2.6659,2.6651,2.6642,2.6637,2.6627,2.6619,2.6607,2.6599,2.659,2.6578,2.6561,2.6554,2.6546,2.6543,2.6542,2.6542,2.6542,2.6544,2.6538,2.6544,2.6544,2.6544,2.6544,2.6544,0,2.6692,2.6684,2.6676,2.6664,2.6657,2.665,2.6639,2.6634,2.6626,2.6616,2.6607,2.6597,2.6588,2.6575,2.6564,2.6561,2.6557,2.6559,2.6559,2.6558,2.6548,2.6549,2.6563,2.6563,2.6563,2.6563,2.6563,2.6563,2.6696,2.6689,2.6682,2.6671,2.6663,2.6655,2.6649,2.6642,2.6634,2.6623,2.6615,2.6607,2.6596,2.6585,2.6577,2.6573,2.657,2.6574,2.6569,2.656,2.6558,2.6556,2.6558,2.6573,2.6573,2.6579,2.6579,2.6579]}]]